RH
71 70 67 67 69 68 67 74 80 77 75 76 75 75 77 78 79 79 79 79 79 78 73 69 67 64 60 54 49 49 48 49 51 50 49 50 53 53 52 51 51 51
68 69 70 70 69 68 68 72 76 73 74 74 71 71 75 77 77 78 79 80 79 78 74 68 65 63 61 57 51 49 49 49 51 52 51 51 53 55 53 52 51 50
65 67 70 72 72 70 69 70 71 68 70 73 68 68 73 77 78 79 80 80 80 79 74 69 66 64 63 61 53 49 49 49 50 52 52 51 53 56 55 53 51 49
65 66 67 69 70 70 68 66 68 68 70 72 69 67 72 76 77 78 79 80 80 80 76 71 69 66 65 64 57 51 48 47 49 51 52 51 52 54 54 54 52 50
67 66 67 68 68 69 68 66 68 69 69 69 68 68 70 72 73 74 78 80 79 79 77 73 71 71 70 68 62 56 52 48 46 47 48 49 51 53 53 52 52 52
65 64 65 68 69 68 67 67 67 69 68 68 69 68 68 70 71 72 77 80 79 79 81 78 74 73 73 71 65 60 58 53 48 45 43 46 49 52 53 52 52 52
59 61 62 64 67 67 66 65 66 67 68 69 69 67 67 69 70 72 76 79 79 80 81 81 79 75 74 73 69 64 63 61 57 51 45 43 47 50 51 50 50 51
54 55 58 60 62 63 64 65 64 64 67 68 68 68 67 68 70 73 75 76 78 79 79 80 80 77 75 75 71 68 67 67 66 62 53 47 47 47 47 48 49 51
50 51 55 57 57 56 58 62 64 66 67 67 67 67 68 68 68 70 73 73 73 74 75 76 77 75 75 76 74 72 70 69 67 66 62 57 53 50 48 47 47 48
43 45 52 54 54 51 50 55 62 66 68 68 66 66 67 69 69 69 72 72 71 71 71 72 73 73 73 73 74 73 71 70 68 68 66 65 62 58 54 51 48 47
40 42 48 50 50 49 48 50 54 59 64 68 69 68 68 69 70 70 73 73 72 72 72 71 71 72 72 71 73 73 71 70 69 69 69 68 66 63 59 55 52 50
44 41 43 44 42 44 47 48 49 51 55 61 67 69 70 70 72 73 74 75 75 75 75 75 73 72 71 70 71 72 72 71 70 70 70 69 67 66 63 60 57 56
44 39 40 42 39 38 40 43 46 48 50 55 62 67 70 70 72 74 73 73 74 73 74 76 76 74 73 72 73 74 73 73 72 71 70 70 69 69 68 68 66 65
44 39 41 44 42 41 41 40 42 46 48 50 54 60 65 67 70 72 71 70 71 71 72 74 74 73 74 74 75 76 76 76 74 72 71 70 71 72 72 73 73 72
49 45 47 48 46 45 45 42 39 40 42 44 47 51 56 60 64 68 70 70 70 69 70 71 70 69 69 70 72 74 75 75 74 74 74 74 74 74 74 74 74 74
57 54 56 56 53 48 45 43 40 38 38 38 41 44 47 51 55 60 65 69 68 68 68 68 66 65 64 65 68 69 70 71 71 73 75 76 75 75 76 77 76 75
60 60 60 60 58 53 47 43 41 39 38 38 38 39 40 43 46 50 55 58 60 62 65 64 63 62 61 61 63 65 67 67 69 70 71 72 73 73 74 76 76 75
62 61 62 62 62 60 55 49 45 41 40 39 37 36 37 38 40 42 45 47 49 52 54 56 56 57 58 60 61 61 63 64 65 67 68 68 69 70 70 71 72 73
62 61 62 63 62 62 60 59 54 47 44 43 41 38 37 36 37 38 39 40 42 43 44 45 47 49 51 54 57 59 61 63 64 65 65 65 65 66 68 68 68 68
60 60 60 61 61 61 63 65 62 54 47 45 43 41 39 37 37 38 38 39 39 39 40 41 42 43 44 46 49 52 55 57 57 58 58 58 58 59 61 62 61 61
61 57 54 55 58 59 61 65 65 59 51 46 46 46 44 43 42 41 41 41 40 40 40 40 42 43 44 45 46 47 49 51 51 52 53 54 55 56 57 57 57 57
59 57 54 52 53 53 55 60 64 62 57 53 52 52 50 49 48 45 44 44 44 44 44 44 44 44 44 45 47 47 49 50 50 51 52 54 54 55 56 57 56 57
54 56 57 55 52 50 51 55 60 63 62 59 58 57 55 52 50 48 46 46 46 47 47 46 46 45 44 44 45 46 47 47 47 46 46 46 47 48 49 50 51 51
57 59 60 59 57 55 53 54 56 59 62 62 62 61 57 53 52 51 49 47 46 46 47 47 46 46 45 44 43 45 45 45 44 43 40 39 38 39 40 42 42 42
61 62 63 61 60 58 56 57 58 58 61 64 64 63 59 55 54 53 49 48 47 45 44 46 46 46 45 45 45 45 44 41 40 40 40 38 37 37 38 39 39 39
61 62 63 64 63 60 58 59 58 58 61 64 65 66 64 59 56 55 52 51 50 47 43 43 43 43 44 44 45 45 42 39 37 37 39 37 35 35 36 36 37 38